Location: Newark
(40.3700°N, 15.2500°E)
Time: 01:19:32
(UTC+00:00)

ISS - Visible Passes

Search period start: 23 November 2019 00:00
Search period end: 03 December 2019 00:00
Orbit: 412 x 421 km, 51.6° (Epoch: 23 November)

Date Brightness Start Highest point End Pass type
(mag) Time Alt. Az. Time Alt. Az. Time Alt. Az.
23 Nov -3.6 16:38:26 10° SW 16:41:43 60° SE 16:43:39 22° ENE visible
23 Nov -0.5 18:15:57 10° WNW 18:16:34 13° WNW 18:16:34 13° WNW visible
24 Nov -2.4 17:27:04 10° W 17:30:07 31° NNW 17:30:14 31° NNW visible
25 Nov -3.1 16:38:19 10° WSW 16:41:35 48° NNW 16:43:49 18° NE visible
26 Nov -1.6 17:27:49 10° WNW 17:30:15 18° NNW 17:30:16 18° NNW visible
27 Nov -2.0 16:38:48 10° W 16:41:35 24° NNW 16:43:45 14° NNE visible
28 Nov -1.2 17:28:46 10° NW 17:30:05 13° NNW 17:30:05 13° NNW visible
29 Nov -1.5 16:39:39 10° NW 16:41:43 15° NNW 16:43:30 11° NNE visible
30 Nov -1.0 17:29:19 10° NNW 17:29:48 11° NNW 17:29:48 11° NNW visible
01 Dec -1.4 16:40:26 10° NNW 16:41:56 12° N 16:43:12 11° NNE visible
02 Dec -1.0 17:29:04 10° NNW 17:29:30 11° NNW 17:29:30 11° NNW visible
